Airfield :
LOGIN :

Register | Disclaimer

   EN    FR    IT 

 










Legend :    VFR   Marginal VFR   IFR   Intensive IFR   Very Intensive IFR
Visi :
Ceiling :
>= 8 km
>= 3000ft
5 to 8 km
1000 to 3000 ft
1500m to 5 km
500 to 1000 ft
800 to 1500m
200 to 500 ft
< 800m
< 200 ft
Symbols :   Thunderstorms  Fog  Heavy snow  Heavy precipitations  Wind > 20 kt
SIGMETs :     Misc.  Thunderstorms  Icing  Turbulence  Mountain Waves  Volcanic Ashes






- Airport Elevation : 319 ft


EIME - Casement Air Base

CURRENT METAR :
  • 251800Z 22014KT 9999 SCT035 BKN060 15/09 Q1031

EXPIRED METARs :
  • 251700Z 22013G24KT 9999 -SHRA SCT035 BKN050 16/09 Q1031
  • 251600Z 22015G26KT 9999 FEW030 SCT070 BKN090 18/09 Q1030

TAF TAF EIME
Valid from the 25 at 18:00 until the 26 at 03:00 UTC


251700Z 2518/2603 21015KT 9999 FEW015 BKN030
TEMPO 2518/2520 22016G27KT
TEMPO 2523/2603 BKN012



MET'MAP, your aeronautical weather chart ! - Copyright ORBIFLY December 2007 - Disclaimer

ORBIFLY MET'MAP TEAM :

Programming & Development : Alexandra Zaïnal
Concept & original design : Baudouin d'Aumeries
Assistance for programming : Marc-Olivier Méhu
Technical & hardware support : Manuel Goepfert

Contact : metmap@orbifly.com




SOURCES & CREDITS :

   NOAA